Home   Weather   Melbourne   Past weeks
Flag for USA

Past Weather in Melbourne, Florida, USA — Yesterday and Last 2 Weeks

Now
79 °F

Clear.


Feels Like: 81 °F
Forecast: 92 / 79 °F
Wind: 6 mph from Southwest

Location: Melbourne International Airport

Current Time: Jun 26, 2019 at 12:51:03 am

Latest Report: Jun 25, 2019 at 11:53 pm


Visibility: 10 mi

Pressure: 30.09 "Hg

Humidity: 62%

Dew Point: 65 °F

Location of MelbourneLocation

Past Weather in Melbourne — Graph

°F

Melbourne Temperature Yesterday

Maximum temperature yesterday: 92 °F (at 11:53 am)
Minimum temperature yesterday: 76 °F (at 6:53 am)
Average temperature yesterday: 85 °F

High & Low Weather Summary for the Past Weeks

 TemperatureHumidityPressure
High95 °F (Jun 20, 3:53 pm)94% (Jun 13, 3:12 pm)30.14 "Hg (Jun 13, 3:12 pm)
Low73 °F (Jun 19, 7:14 pm)46% (Jun 21, 4:53 pm)29.94 "Hg (Jun 19, 3:53 pm)
Average82 °F77%30.04 "Hg
* Reported Jun 10 10:53 pm — Jun 25 10:53 pm, Melbourne. Weather by CustomWeather, © 2019

Note: Actual official high and low records may vary slightly from our data, if they occured in-between our weather recording intervals... More about our weather records

Advertising

Melbourne Weather History for the Previous 24 Hours

Scroll right to see more
 ConditionsComfort  
Time TempWeatherWind HumidityBarometerVisibility
10:53 pm
Tue, Jun 25
79 °FClear.6 mph67%30.08 "Hg10 mi
9:53 pm82 °FClear.13 mph67%30.07 "Hg10 mi
8:53 pm84 °FPassing clouds.14 mph67%30.06 "Hg10 mi
7:53 pm86 °FSunny.8 mph72%30.02 "Hg10 mi
6:53 pm87 °FSunny.13 mph69%30.00 "Hg10 mi
5:53 pm88 °FSunny.10 mph67%30.01 "Hg10 mi
4:53 pm89 °FSunny.12 mph63%30.01 "Hg10 mi
3:53 pm89 °FSunny.12 mph72%30.03 "Hg10 mi
2:53 pm90 °FSunny.14 mph73%30.03 "Hg10 mi
1:53 pm92 °FScattered clouds.10 mph64%30.04 "Hg10 mi
12:53 pm92 °FScattered clouds.9 mph66%30.05 "Hg10 mi
11:53 am92 °FScattered clouds.8 mph64%30.06 "Hg10 mi
10:53 am90 °FSunny.6 mph66%30.06 "Hg10 mi
9:53 am88 °FSunny.7 mph73%30.06 "Hg10 mi
8:53 am85 °FSunny.8 mph77%30.06 "Hg10 mi
7:53 am80 °FSunny.5 mph87%30.05 "Hg10 mi
6:53 am76 °FSunny.3 mph91%30.03 "Hg10 mi
5:53 am77 °FClear.5 mph88%30.01 "Hg10 mi
4:53 am78 °FClear.3 mph87%29.99 "Hg10 mi
3:53 am78 °FClear.6 mph87%29.99 "Hg10 mi
2:53 am81 °FClear.6 mph85%30.00 "Hg10 mi
1:53 am82 °FClear.7 mph85%30.01 "Hg10 mi
12:53 am83 °FClear.7 mph85%30.02 "Hg9 mi
Weather by CustomWeather, © 2019

See weather overview